| time (UTC) | temp C | wind direction | speed KPH | gust KPH | rain 1hr cm | rain 24hr cm | rain mn cm | humidity % | barometer mb |
| 20260507181554 | 10 | 140 | 9.7 | 22.5 | 0.00 | 0.00 | 0.00 | 84 | 1014.8 |
| 20260507180058 | 10 | 144 | 12.9 | 22.5 | 0.00 | 0.00 | 0.00 | 84 | 1014.9 |
| 20260507174603 | 10 | 113 | 11.3 | 27.4 | 0.00 | 0.00 | 0.00 | 84 | 1014.9 |
| 20260507173051 | 10 | 171 | 12.9 | 25.7 | 0.00 | 0.00 | 0.00 | 83 | 1014.9 |
| 20260507171603 | 10 | 126 | 16.1 | 27.4 | 0.00 | 0.00 | 0.00 | 83 | 1014.9 |
| 20260507170048 | 11 | 120 | 14.5 | 24.1 | 0.00 | 0.00 | 0.00 | 82 | 1015.0 |
| 20260507164550 | 11 | 167 | 16.1 | 25.7 | 0.00 | 0.00 | 0.00 | 82 | 1015.2 |
| 20260507163050 | 11 | 114 | 14.5 | 24.1 | 0.00 | 0.00 | 0.00 | 82 | 1015.2 |
| 20260507161547 | 11 | 138 | 11.3 | 22.5 | 0.00 | 0.00 | 0.00 | 83 | 1015.2 |
| 20260507160051 | 10 | 149 | 8.0 | 20.9 | 0.00 | 0.00 | 0.00 | 82 | 1015.3 |
| 20260507154544 | 10 | 113 | 12.9 | 24.1 | 0.00 | 0.00 | 0.00 | 82 | 1015.3 |
| 20260507153046 | 10 | 143 | 14.5 | 25.7 | 0.00 | 0.00 | 0.00 | 81 | 1015.2 |
| 20260507151643 | 11 | 121 | 14.5 | 29.0 | 0.00 | 0.00 | 0.00 | 81 | 1015.3 |
| 20260507150041 | 11 | 139 | 11.3 | 25.7 | 0.00 | 0.00 | 0.00 | 81 | 1015.3 |
| 20260507144540 | 11 | 176 | 12.9 | 22.5 | 0.00 | 0.00 | 0.00 | 79 | 1015.3 |
| 20260507143043 | 12 | 170 | 11.3 | 29.0 | 0.00 | 0.00 | 0.00 | 79 | 1015.4 |
| 20260507141543 | 12 | 99 | 14.5 | 22.5 | 0.00 | 0.00 | 0.00 | 80 | 1015.5 |
| 20260507140038 | 12 | 131 | 8.0 | 27.4 | 0.00 | 0.00 | 0.00 | 79 | 1015.6 |
| 20260507134536 | 12 | 142 | 9.7 | 22.5 | 0.00 | 0.00 | 0.00 | 78 | 1015.6 |
| 20260507133036 | 12 | 138 | 9.7 | 19.3 | 0.00 | 0.00 | 0.00 | 78 | 1015.7 |
| 20260507131537 | 12 | 151 | 9.7 | 17.7 | 0.00 | 0.00 | 0.00 | 75 | 1015.7 |
| 20260507130040 | 13 | 192 | 11.3 | 19.3 | 0.00 | 0.00 | 0.00 | 74 | 1015.6 |
| 20260507124547 | 13 | 139 | 12.9 | 19.3 | 0.00 | 0.00 | 0.00 | 65 | 1015.6 |
| 20260507123031 | 13 | 168 | 11.3 | 25.7 | 0.00 | 0.00 | 0.00 | 67 | 1015.7 |
| 20260507121528 | 13 | 158 | 11.3 | 20.9 | 0.00 | 0.00 | 0.00 | 67 | 1015.8 |
| 20260507120027 | 12 | 159 | 11.3 | 19.3 | 0.00 | 0.00 | 0.00 | 66 | 1015.9 |
| 20260507114529 | 12 | 177 | 8.0 | 17.7 | 0.00 | 0.00 | 0.00 | 68 | 1016.0 |
| 20260507113025 | 12 | 168 | 11.3 | 22.5 | 0.00 | 0.00 | 0.00 | 67 | 1016.0 |
| 20260507111526 | 13 | 162 | 12.9 | 24.1 | 0.00 | 0.00 | 0.00 | 67 | 1016.1 |
| 20260507110028 | 13 | 144 | 12.9 | 22.5 | 0.00 | 0.00 | 0.00 | 67 | 1016.2 |
| 20260507104519 | 12 | 180 | 12.9 | 20.9 | 0.00 | 0.00 | 0.00 | 66 | 1016.2 |
| 20260507103017 | 12 | 187 | 14.5 | 22.5 | 0.00 | 0.00 | 0.00 | 65 | 1016.3 |
| 20260507101514 | 12 | 178 | 9.7 | 20.9 | 0.00 | 0.00 | 0.00 | 66 | 1016.4 |
| 20260507100009 | 11 | 170 | 12.9 | 24.1 | 0.00 | 0.00 | 0.00 | 69 | 1016.4 |
| 20260507094505 | 11 | 195 | 8.0 | 17.7 | 0.00 | 0.00 | 0.00 | 70 | 1016.4 |
| 20260507093003 | 11 | 204 | 9.7 | 20.9 | 0.00 | 0.00 | 0.00 | 74 | 1016.3 |
| 20260507091602 | 10 | 115 | 6.4 | 19.3 | 0.00 | 0.00 | 0.00 | 73 | 1016.2 |
| 20260507090010 | 10 | 163 | 9.7 | 16.1 | 0.00 | 0.00 | 0.00 | 75 | 1016.3 |
| 20260507084510 | 10 | 131 | 11.3 | 17.7 | 0.00 | 0.00 | 0.00 | 77 | 1016.4 |
| 20260507083008 | 9 | 158 | 11.3 | 17.7 | 0.00 | 0.00 | 0.00 | 79 | 1016.5 |
| 20260507081505 | 9 | 198 | 11.3 | 17.7 | 0.00 | 0.00 | 0.00 | 82 | 1016.5 |
| 20260507080103 | 8 | 157 | 11.3 | 20.9 | 0.00 | 0.05 | 0.00 | 87 | 1016.6 |
| 20260507074607 | 7 | 173 | 4.8 | 12.9 | 0.00 | 0.05 | 0.00 | 95 | 1016.5 |
| 20260507073051 | 6 | 143 | 8.0 | 16.1 | 0.00 | 0.05 | 0.00 | 97 | 1016.4 |
| 20260507071551 | 4 | 88 | 0.0 | 4.8 | 0.00 | 0.05 | 0.00 | 96 | 1016.5 |
| 20260507070057 | 3 | 92 | 1.6 | 3.2 | 0.00 | 0.05 | 0.00 | 96 | 1016.6 |
| 20260507064538 | 2 | 99 | 0.0 | 0.0 | 0.00 | 0.05 | 0.00 | 96 | 1016.5 |
| 20260507063051 | 2 | 99 | 0.0 | 3.2 | 0.00 | 0.05 | 0.00 | 95 | 1016.4 |
| 20260507061535 | 1 | 99 | 0.0 | 0.0 | 0.00 | 0.05 | 0.00 | 95 | 1016.3 |
| 20260507060043 | 1 | 99 | 0.0 | 0.0 | 0.00 | 0.05 | 0.00 | 95 | 1016.3 |
| 20260507054530 | 0 | 99 | 0.0 | 0.0 | 0.00 | 0.05 | 0.00 | 95 | 1016.2 |
| 20260507053030 | 0 | 99 | 0.0 | 0.0 | 0.00 | 0.05 | 0.00 | 95 | 1016.1 |
| 20260507051529 | 0 | 100 | 0.0 | 0.0 | 0.00 | 0.05 | 0.00 | 95 | 1016.1 |
| 20260507050034 | 0 | 100 | 0.0 | 0.0 | 0.00 | 0.08 | 0.00 | 94 | 1016.2 |
| 20260507044525 | -1 | 99 | 0.0 | 0.0 | 0.00 | 0.08 | 0.00 | 94 | 1016.0 |
| 20260507043024 | 0 | 99 | 0.0 | 0.0 | 0.00 | 0.08 | 0.00 | 94 | 1016.0 |
| 20260507041524 | -1 | 99 | 0.0 | 4.8 | 0.00 | 0.08 | 0.00 | 94 | 1016.0 |
| 20260507040025 | 0 | 99 | 0.0 | 1.6 | 0.00 | 0.08 | 0.00 | 94 | 1016.0 |
| 20260507034531 | 0 | 99 | 0.0 | 3.2 | 0.00 | 0.08 | 0.00 | 94 | 1016.0 |
| 20260507033020 | 0 | 99 | 0.0 | 0.0 | 0.00 | 0.08 | 0.00 | 94 | 1016.1 |
| 20260507031518 | 0 | 99 | 0.0 | 0.0 | 0.00 | 0.08 | 0.00 | 94 | 1016.2 |
| 20260507030017 | 0 | 99 | 0.0 | 0.0 | 0.00 | 0.08 | 0.00 | 94 | 1016.2 |
| 20260507024522 | 0 | 99 | 0.0 | 0.0 | 0.00 | 0.08 | 0.00 | 94 | 1016.1 |
| 20260507023022 | 0 | 99 | 0.0 | 0.0 | 0.00 | 0.08 | 0.00 | 94 | 1016.2 |
| 20260507021513 | 0 | 99 | 0.0 | 3.2 | 0.00 | 0.08 | 0.00 | 93 | 1016.2 |
| 20260507020024 | 0 | 99 | 0.0 | 0.0 | 0.00 | 0.10 | 0.00 | 94 | 1016.1 |
| 20260507014510 | 0 | 99 | 0.0 | 0.0 | 0.00 | 0.10 | 0.00 | 93 | 1016.1 |
| 20260507013018 | 0 | 99 | 0.0 | 0.0 | 0.00 | 0.10 | 0.00 | 93 | 1016.2 |
| 20260507011509 | 0 | 99 | 0.0 | 0.0 | 0.00 | 0.10 | 0.00 | 93 | 1016.2 |
| 20260507010006 | 0 | 99 | 0.0 | 0.0 | 0.00 | 0.10 | 0.00 | 93 | 1016.2 |
| 20260507004504 | 0 | 99 | 0.0 | 0.0 | 0.00 | 0.10 | 0.00 | 93 | 1016.1 |
| 20260507003001 | 1 | 99 | 0.0 | 0.0 | 0.00 | 0.10 | 0.00 | 93 | 1016.2 |
| 20260507001501 | 1 | 99 | 0.0 | 0.0 | 0.00 | 0.10 | 0.00 | 93 | 1016.1 |
| 20260507000059 | 1 | 99 | 0.0 | 3.2 | 0.00 | 0.10 | 0.10 | 93 | 1016.2 |
| 20260506234559 | 1 | 99 | 0.0 | 3.2 | 0.00 | 0.10 | 0.10 | 93 | 1016.2 |
| 20260506233107 | 1 | 99 | 1.6 | 3.2 | 0.00 | 0.10 | 0.10 | 92 | 1016.4 |
| 20260506231605 | 0 | 99 | 0.0 | 3.2 | 0.00 | 0.10 | 0.10 | 92 | 1016.4 |
| 20260506224553 | 1 | 99 | 0.0 | 3.2 | 0.00 | 0.10 | 0.10 | 91 | 1016.3 |
| 20260506223051 | 1 | 99 | 0.0 | 3.2 | 0.00 | 0.10 | 0.10 | 90 | 1016.3 |
| 20260506221555 | 1 | 99 | 1.6 | 4.8 | 0.00 | 0.10 | 0.10 | 90 | 1016.2 |
| 20260506220048 | 2 | 119 | 0.0 | 6.4 | 0.00 | 0.10 | 0.10 | 90 | 1016.1 |
| 20260506214550 | 2 | 117 | 3.2 | 9.7 | 0.00 | 0.10 | 0.10 | 90 | 1016.1 |
| 20260506213047 | 2 | 115 | 3.2 | 9.7 | 0.00 | 0.10 | 0.10 | 90 | 1016.1 |
| 20260506211546 | 2 | 113 | 4.8 | 6.4 | 0.00 | 0.10 | 0.10 | 89 | 1016.1 |
| 20260506210045 | 2 | 112 | 3.2 | 6.4 | 0.00 | 0.10 | 0.10 | 88 | 1016.2 |
| 20260506204545 | 3 | 111 | 1.6 | 4.8 | 0.00 | 0.10 | 0.10 | 87 | 1016.1 |
| 20260506203044 | 4 | 111 | 0.0 | 6.4 | 0.00 | 0.10 | 0.10 | 86 | 1016.1 |
| 20260506201543 | 4 | 113 | 3.2 | 11.3 | 0.00 | 0.10 | 0.10 | 86 | 1015.9 |
| 20260506200045 | 5 | 113 | 3.2 | 11.3 | 0.00 | 0.10 | 0.10 | 86 | 1015.8 |
| 20260506194547 | 5 | 102 | 4.8 | 9.7 | 0.00 | 0.10 | 0.10 | 85 | 1015.9 |
| 20260506193042 | 5 | 76 | 3.2 | 6.4 | 0.00 | 0.10 | 0.10 | 84 | 1015.8 |
| 20260506191540 | 6 | 73 | 0.0 | 3.2 | 0.00 | 0.10 | 0.10 | 82 | 1015.9 |
| 20260506190039 | 6 | 73 | 0.0 | 3.2 | 0.00 | 0.10 | 0.10 | 81 | 1015.8 |
| 20260506184539 | 7 | 72 | 3.2 | 14.5 | 0.00 | 0.10 | 0.10 | 79 | 1015.7 |
| 20260506183039 | 7 | 57 | 8.0 | 16.1 | 0.00 | 0.10 | 0.10 | 78 | 1015.6 |